[[{"header":{"parameterUnit":"m.s-1","parameterCategory":1,"la1":30.2991,"la2":30.254,"lo1":-89.0895,"lo2":-89.0444,"dy":0.0017,"dx":0.0017,"nx":28,"ny":28,"refTime":"2026-02-11T09:00:00:Z","depth":0,"parameterNumber":2,"parameterNumberName":"U-component_of_WINDS"},"data":[0,0,0,0,0,0,0,0,0,0,0,0,0,0,0,0,0,0,0,0,0,0,0,0,0,0,0,0,0,0,0,0,0,0,0,0,0,0,0,0,0,0,0,0,0,0,0,0,0,0,0,0,0,0,0,0,0,0,1.9326,1.9327,0,1.9432,1.9433,1.9435,1.9399,1.9396,1.9394,1.9392,1.9503,1.9508,1.9513,0,0,0,0,0,0,0,0,0,0,0,0,0,1.9095,1.9099,1.9326,1.9327,1.9329,1.9432,1.9434,1.9435,1.9399,1.9396,1.9394,1.9391,1.9501,1.9507,1.9513,0,0,0,0,0,0,0,0,0,0,0,0,0,1.9198,1.9101,1.9326,1.9323,1.9324,1.9432,1.9434,1.9435,1.94,1.9396,1.9393,1.939,1.9499,1.9506,1.9514,1.9631,0,0,1.9537,1.9541,0,0,0,0,0,0,0,0,1.9192,1.9206,1.9322,1.9324,1.9325,1.9399,1.9392,1.9501,1.9401,1.9371,1.9392,1.9388,1.9471,1.9481,1.9508,1.9636,1.9641,1.9538,1.9543,1.9546,1.9548,0,0,0,0,0,0,0,1.9185,1.9201,1.9368,1.9324,1.9326,1.9318,1.9328,1.9413,1.9439,1.9373,1.9371,1.9384,1.9471,1.9501,1.9511,1.9643,1.9538,1.9545,1.9549,1.9552,1.9872,1.9876,0,0,0,0,0,0,1.9177,1.9196,1.9365,1.9371,1.9248,1.9325,1.9337,1.9379,1.9438,1.9444,1.9387,1.9382,1.949,1.9502,1.9514,1.9655,1.9546,1.9553,1.9558,1.9869,1.9873,1.9878,0,0,0,0,0,0,1.9172,1.9192,1.936,1.9283,1.9304,1.9332,1.938,1.9382,1.9412,1.9449,1.9453,1.9413,1.9487,1.9504,1.9602,1.9659,1.9557,1.9564,1.9864,1.987,1.9875,1.9938,0,0,0,0,0,0,1.9165,1.9191,1.9235,1.9284,1.9308,1.9446,1.9383,1.9387,1.9425,1.942,1.9474,1.9479,1.9486,1.9591,1.961,1.9667,1.957,1.9859,1.9867,1.9874,1.9931,1.9945,1.9958,0,0,0,0,0,1.9157,1.9248,1.9237,1.9258,1.9364,1.9449,1.9463,1.9468,1.943,1.9475,1.9498,1.9478,1.965,1.9601,1.9622,1.9683,1.9855,1.9865,1.9873,1.9925,1.9943,1.9957,0,0,0,0,0,0,1.9205,1.9255,1.9243,1.9353,1.9397,1.9443,1.95,1.9486,1.9543,1.9535,1.954,1.9552,1.9654,1.9678,1.9624,1.98,1.9747,1.976,1.978,1.9796,1.9809,1.9801,1.9576,0,0,0,0,0,1.9228,1.9293,1.9333,1.9426,1.9449,1.9471,1.9508,1.9508,1.9555,1.9573,1.9604,1.965,1.9715,1.9757,1.9818,1.9935,1.9946,1.9987,2.0,2.0011,2.0022,2.0086,2.0104,1.9906,1.9906,1.9906,0,0,1.9277,1.9312,1.9353,1.9437,1.9471,1.9539,1.9487,1.956,1.9611,1.9585,1.9679,1.9704,1.9756,1.9864,1.9913,1.9888,2.008,2.0022,2.003,2.0036,2.0097,2.0115,2.0132,1.9912,1.9911,1.991,0,0,1.94,1.9433,1.9514,1.955,1.9603,1.9617,1.9636,1.9685,1.97,1.9795,1.9777,1.9838,1.9949,1.9986,2.002,2.0159,2.0142,2.0179,2.0248,2.031,2.0325,2.0339,2.0388,2.0406,2.0191,2.0191,2.0191,0,1.9454,1.9554,1.9558,1.9633,1.9671,1.9651,1.9733,1.9768,1.9838,1.9865,1.9836,1.9975,2.0009,2.0125,2.0159,2.0187,2.021,2.0173,2.0323,2.0337,2.035,2.0397,2.0415,2.0195,2.0194,2.0194,2.0194,0,1.9618,1.9688,1.9747,1.9815,1.986,1.9939,1.9955,2.0,1.9997,2.0014,2.0112,2.0152,2.022,2.0249,2.0246,2.0365,2.0348,2.0321,2.0268,2.0373,2.0417,2.0435,2.0201,2.0199,2.0198,2.0197,0,0,1.9772,1.9842,1.9864,1.9895,1.9952,2.0006,2.0085,2.0152,2.019,2.024,2.0306,2.0401,2.0376,2.0415,2.0417,2.0471,2.0579,2.0438,2.0439,2.0462,2.0712,2.0731,2.0752,2.0568,2.0572,2.0575,2.0707,0,1.9899,2.0036,2.0042,2.0167,2.0231,2.0214,2.0282,2.0325,2.0344,2.0403,2.0424,2.0491,2.0454,2.0477,2.053,2.0554,2.0629,2.0545,2.063,2.0632,2.0616,2.0775,2.0795,2.0918,2.0725,2.0728,2.073,0,2.0065,2.012,2.0251,2.0299,2.0327,2.0388,2.045,2.0506,2.0555,2.0565,2.0609,2.0603,2.0684,2.0629,2.0741,2.0684,2.0719,2.0737,2.0742,2.0749,2.0686,2.0785,2.0958,2.0976,2.0757,2.0755,2.0753,0,2.0164,2.027,2.0362,2.0389,2.0448,2.0492,2.0519,2.0564,2.0604,2.066,2.0686,2.075,2.0785,2.0835,2.0847,2.0806,2.0959,2.0905,2.0969,2.0969,2.1001,2.0998,2.118,2.1026,2.1026,2.1025,2.1025,0,2.0304,2.0384,2.0407,2.0463,2.0554,2.0561,2.065,2.0674,2.0715,2.0776,2.0766,2.0824,2.0837,2.0898,2.0909,2.1,2.1016,2.1026,2.1028,2.1026,2.1025,2.1048,2.104,2.103,2.1029,2.1028,2.1027,0,2.0428,2.0447,2.0546,2.0594,2.0608,2.0672,2.0714,2.0769,2.0787,2.0865,2.0883,2.0912,2.0983,2.1001,2.1086,2.1093,2.12,2.1194,2.1183,2.1182,2.1245,2.1239,2.1448,2.1475,2.1304,2.1305,2.1307,0,2.0515,2.0577,2.0632,2.0672,2.0701,2.0766,2.0807,2.0818,2.0861,2.0922,2.097,2.104,2.1096,2.1211,2.1239,2.1305,2.1299,2.1368,2.1309,2.1306,2.1299,2.1295,2.1301,2.1379,2.1381,2.1382,2.1383,0,2.0669,2.0675,2.0734,2.0798,2.0847,2.0897,2.0945,2.0979,2.0996,2.1046,2.1118,2.1162,2.1249,2.1318,2.1384,2.1413,2.1401,2.1402,2.142,2.1419,2.1409,2.1414,2.1213,2.1397,2.1396,2.1395,2.1394,2.1393,2.0776,2.083,2.0878,2.0944,2.0982,2.1027,2.1081,2.1106,2.1167,2.1238,2.1241,2.132,2.1368,2.1456,2.1488,2.155,2.1529,2.1556,2.1562,2.1568,2.1573,2.1401,2.1562,2.1562,2.1562,2.1561,2.1561,0,2.0928,2.0958,2.1019,2.1087,2.114,2.1125,2.1178,2.1223,2.1292,2.1338,2.1394,2.1478,2.1546,2.158,2.1648,2.1691,2.1687,2.1708,2.1704,2.1711,2.1588,2.1565,2.171,2.171,2.171,2.171,2.171,2.171,2.1012,2.1103,2.1115,2.1225,2.1254,2.1331,2.1363,2.1405,2.1442,2.1535,2.1592,2.1614,2.1656,2.1726,2.1788,2.1797,2.1821,2.1845,2.1851,2.1735,2.172,2.1705,2.1684,2.185,2.1851,2.1968,2.1969,2.197]},{"header":{"parameterUnit":"m.s-1","parameterCategory":1,"la1":30.2991,"la2":30.254,"lo1":-89.0895,"lo2":-89.0444,"dy":0.0017,"dx":0.0017,"nx":28,"ny":28,"refTime":"2026-02-11T09:00:00:Z","depth":0,"parameterNumber":3,"parameterNumberName":"V-component_of_WINDS"},"data":[0,0,0,0,0,0,0,0,0,0,0,0,0,0,0,0,0,0,0,0,0,0,0,0,0,0,0,0,0,0,0,0,0,0,0,0,0,0,0,0,0,0,0,0,0,0,0,0,0,0,0,0,0,0,0,0,0,0,1.9895,1.9896,0,2.0011,2.0012,2.0013,2.0026,2.0025,2.0023,2.0022,2.0136,2.014,2.0144,0,0,0,0,0,0,0,0,0,0,0,0,0,1.9683,1.9687,1.9895,1.9897,1.9898,2.001,2.0012,2.0014,2.0026,2.0024,2.0023,2.0022,2.0135,2.014,2.0145,0,0,0,0,0,0,0,0,0,0,0,0,0,1.9784,1.9688,1.9895,1.9918,1.9921,2.001,2.0012,2.0014,2.0026,2.0024,2.0023,2.0021,2.0133,2.0139,2.0145,2.0218,0,0,2.0164,2.0167,0,0,0,0,0,0,0,0,1.9778,1.9792,1.9913,1.9916,1.992,2.0002,1.9979,2.0082,2.0027,1.9986,2.0022,2.002,2.0093,2.0102,2.0127,2.0223,2.0228,2.0165,2.0168,2.0171,2.0173,0,0,0,0,0,0,0,1.9771,1.9787,1.9941,1.9915,1.9919,1.9921,1.9934,1.9998,2.0047,1.999,1.9991,2.0004,2.0094,2.0121,2.013,2.023,2.0164,2.017,2.0174,2.0176,2.0392,2.0394,0,0,0,0,0,0,1.976,1.9781,1.9937,1.9944,1.9844,1.9927,1.9941,1.9977,2.0047,2.0056,2.0006,2.0005,2.0112,2.0123,2.0134,2.0225,2.0171,2.0177,2.018,2.039,2.0393,2.0395,0,0,0,0,0,0,1.9756,1.9774,1.9932,1.9863,1.9883,1.9932,1.9973,1.9981,2.0008,2.0059,2.0068,2.0025,2.0111,2.0125,2.0198,2.0229,2.0179,2.0185,2.0388,2.0391,2.0394,2.0406,0,0,0,0,0,0,1.975,1.9773,1.9801,1.9864,1.9887,1.9995,1.9975,1.9984,2.0019,2.0018,2.0079,2.0088,2.0111,2.0188,2.0204,2.0236,2.019,2.0385,2.0389,2.0393,2.0403,2.0409,2.0414,0,0,0,0,0,1.9742,1.9799,1.9803,1.9821,1.9924,1.9997,2.001,2.0036,2.0021,2.005,2.0084,2.0086,2.0223,2.0196,2.0213,2.0248,2.0383,2.0388,2.0393,2.04,2.0408,2.0414,0,0,0,0,0,0,1.9737,1.9807,1.9812,1.9891,1.9938,1.9999,2.0036,2.0043,2.0094,2.0091,2.0121,2.0134,2.0205,2.0234,2.0202,2.0323,2.0302,2.031,2.0301,2.0309,2.0314,2.0306,2.0195,0,0,0,0,0,1.9745,1.9799,1.9857,1.9921,1.9945,1.9986,2.0019,2.0035,2.0085,2.0104,2.0142,2.0189,2.0243,2.0277,2.033,2.0407,2.0421,2.044,2.0445,2.045,2.0456,2.05,2.051,2.041,2.041,2.041,0,0,1.9762,1.9807,1.9839,1.9921,1.9959,2.0014,2.0003,2.0061,2.0101,2.0112,2.0183,2.0213,2.0267,2.0343,2.0378,2.0369,2.0487,2.0456,2.0459,2.0463,2.0506,2.0515,2.0524,2.0413,2.0413,2.0412,0,0,1.9821,1.9861,1.9919,1.9958,2.0017,2.0045,2.0059,2.0119,2.014,2.0212,2.0222,2.027,2.0362,2.0401,2.0432,2.0508,2.0512,2.0524,2.0553,2.0595,2.0603,2.061,2.0638,2.0647,2.053,2.053,2.053,0,1.9834,1.9918,1.9947,2.0006,2.0042,2.0056,2.0115,2.0151,2.0224,2.0248,2.0237,2.0354,2.0391,2.0476,2.0495,2.052,2.0536,2.0517,2.06,2.0607,2.0614,2.0641,2.0651,2.0532,2.0531,2.0531,2.0531,0,1.9932,1.999,2.003,2.0101,2.0142,2.02,2.0237,2.0275,2.0288,2.0317,2.039,2.0436,2.0498,2.052,2.0532,2.0607,2.06,2.0594,2.0574,2.0625,2.065,2.066,2.0533,2.0533,2.0532,2.0532,0,0,1.9989,2.0078,2.0092,2.0125,2.0192,2.0237,2.0296,2.0359,2.0391,2.044,2.0491,2.0569,2.0565,2.0601,2.0618,2.0656,2.0713,2.0646,2.0647,2.0657,2.0799,2.0803,2.0814,2.0717,2.0719,2.072,2.0794,0,2.0056,2.0163,2.0192,2.0282,2.0337,2.0352,2.0404,2.045,2.0479,2.0528,2.0559,2.0615,2.0605,2.0627,2.0665,2.0698,2.0742,2.0693,2.0763,2.0765,2.0749,2.0827,2.0831,2.0899,2.0805,2.0806,2.0807,0,2.0148,2.0202,2.0298,2.036,2.0384,2.043,2.049,2.0538,2.059,2.0609,2.065,2.0665,2.0726,2.0703,2.0788,2.0754,2.0785,2.0806,2.0809,2.0816,2.0789,2.0836,2.0921,2.0931,2.0823,2.0822,2.0821,0,2.018,2.0277,2.0348,2.0375,2.0449,2.0481,2.0513,2.0564,2.0601,2.0653,2.0677,2.0736,2.0767,2.0812,2.0842,2.0822,2.0925,2.0904,2.0941,2.094,2.0961,2.096,2.1052,2.0981,2.0981,2.0981,2.098,0,2.0252,2.031,2.0363,2.0407,2.0473,2.0505,2.057,2.0602,2.0648,2.0697,2.0714,2.0759,2.0796,2.0847,2.087,2.0938,2.0951,2.0968,2.0973,2.0966,2.0964,2.0986,2.0982,2.0983,2.0983,2.0982,2.0982,0,2.0299,2.0337,2.0415,2.0479,2.0497,2.0543,2.0597,2.0639,2.0669,2.0732,2.0748,2.0795,2.0856,2.089,2.0965,2.0981,2.1056,2.1059,2.1039,2.1042,2.1077,2.1073,2.1187,2.1203,2.1121,2.1122,2.1122,0,2.0342,2.0387,2.0457,2.0493,2.0526,2.0582,2.062,2.0654,2.0692,2.0757,2.0792,2.0854,2.0906,2.1002,2.1041,2.11,2.1104,2.114,2.1113,2.1105,2.1105,2.1102,2.1107,2.1144,2.1145,2.1146,2.1146,0,2.0414,2.0431,2.0486,2.0548,2.0594,2.0644,2.0693,2.0721,2.0763,2.0806,2.0869,2.0909,2.0988,2.1049,2.1111,2.1143,2.1152,2.1155,2.1166,2.116,2.1146,2.1154,2.1052,2.1152,2.1151,2.1151,2.115,2.115,2.0461,2.0503,2.0559,2.062,2.0661,2.0708,2.0751,2.0788,2.0842,2.091,2.0926,2.0993,2.1046,2.113,2.1164,2.1216,2.1209,2.1226,2.123,2.1234,2.1236,2.1138,2.1227,2.1227,2.1227,2.1227,2.1227,0,2.0534,2.0572,2.0628,2.0698,2.0746,2.0752,2.0808,2.0847,2.0906,2.0956,2.1007,2.108,2.114,2.1186,2.1247,2.128,2.1286,2.1295,2.1293,2.13,2.1238,2.1222,2.1289,2.1289,2.1289,2.1289,2.1289,2.1289,2.0578,2.065,2.0674,2.0766,2.0803,2.087,2.0902,2.0945,2.0984,2.1066,2.1117,2.1147,2.1195,2.126,2.1316,2.1327,2.1349,2.1358,2.137,2.1311,2.1304,2.1298,2.1283,2.1362,2.1362,2.1428,2.1429,2.1429]}]]